| time (UTC) | temp F | wind direction | speed knots | gust knots | rain 1hr in | rain 24hr in | rain mn in | humidity % | barometer mb |
| 20260505152556 | 56 | 206 | 1.7 | 3.5 | 0.00 | 0.00 | 0.00 | 81 | 1016.0 |
| 20260505151554 | 56 | 188 | 1.7 | 2.6 | 0.00 | 0.00 | 0.00 | 81 | 1015.9 |
| 20260505150552 | 56 | 229 | 1.7 | 6.1 | 0.00 | 0.00 | 0.00 | 81 | 1015.8 |
| 20260505140543 | 55 | 218 | 1.7 | 2.6 | 0.00 | 0.00 | 0.00 | 82 | 1015.3 |
| 20260505124610 | 55 | 228 | 1.7 | 3.5 | 0.00 | 0.00 | 0.00 | 83 | 1014.6 |
| 20260505123527 | 55 | 213 | 1.7 | 5.2 | 0.00 | 0.00 | 0.00 | 83 | 1014.5 |
| 20260505122525 | 55 | 234 | 0.9 | 2.6 | 0.00 | 0.00 | 0.00 | 83 | 1014.5 |
| 20260505121523 | 55 | 224 | 0.9 | 1.7 | 0.00 | 0.00 | 0.00 | 83 | 1014.5 |
| 20260505120521 | 55 | 184 | 0.9 | 1.7 | 0.00 | 0.00 | 0.00 | 83 | 1014.4 |
| 20260505115519 | 55 | 237 | 0.0 | 1.7 | 0.00 | 0.00 | 0.00 | 83 | 1014.3 |
| 20260505114519 | 55 | 204 | 0.0 | 0.9 | 0.00 | 0.00 | 0.00 | 83 | 1014.4 |
| 20260505113516 | 55 | 238 | 0.9 | 2.6 | 0.00 | 0.00 | 0.00 | 83 | 1014.4 |
| 20260505112615 | 55 | 210 | 1.7 | 3.5 | 0.00 | 0.00 | 0.00 | 83 | 1014.3 |
| 20260505111613 | 55 | 211 | 1.7 | 2.6 | 0.00 | 0.00 | 0.00 | 83 | 1014.3 |
| 20260505110611 | 55 | 264 | 0.0 | 2.6 | 0.00 | 0.00 | 0.00 | 83 | 1014.1 |
| 20260505101643 | 55 | 213 | 0.9 | 1.7 | 0.00 | 0.00 | 0.00 | 83 | 1014.0 |
| 20260505100601 | 55 | 215 | 0.9 | 1.7 | 0.00 | 0.00 | 0.00 | 84 | 1013.8 |
| 20260505095600 | 55 | 237 | 0.9 | 1.7 | 0.00 | 0.00 | 0.00 | 84 | 1013.8 |
| 20260505094558 | 55 | 214 | 1.7 | 5.2 | 0.00 | 0.00 | 0.00 | 84 | 1013.7 |
| 20260505093555 | 55 | 228 | 1.7 | 3.5 | 0.00 | 0.00 | 0.00 | 84 | 1013.7 |
| 20260505092554 | 55 | 197 | 0.9 | 3.5 | 0.00 | 0.00 | 0.00 | 84 | 1013.7 |
| 20260505091553 | 54 | 185 | 1.7 | 2.6 | 0.00 | 0.00 | 0.00 | 84 | 1013.6 |
| 20260505090552 | 54 | 173 | 0.0 | 1.7 | 0.00 | 0.00 | 0.00 | 85 | 1013.6 |
| 20260505085549 | 54 | 221 | 0.9 | 0.9 | 0.00 | 0.00 | 0.00 | 85 | 1013.4 |
| 20260505084548 | 54 | 230 | 0.9 | 2.6 | 0.00 | 0.00 | 0.00 | 86 | 1013.5 |
| 20260505083546 | 53 | 248 | 0.9 | 1.7 | 0.00 | 0.00 | 0.00 | 86 | 1013.4 |
| 20260505082544 | 53 | 214 | 0.9 | 1.7 | 0.00 | 0.00 | 0.00 | 86 | 1013.4 |
| 20260505081545 | 53 | 220 | 0.9 | 2.6 | 0.00 | 0.00 | 0.00 | 85 | 1013.5 |
| 20260505080540 | 53 | 247 | 1.7 | 5.2 | 0.00 | 0.00 | 0.00 | 85 | 1013.5 |
| 20260505075539 | 53 | 233 | 2.6 | 5.2 | 0.00 | 0.00 | 0.00 | 85 | 1013.3 |
| 20260505074537 | 53 | 210 | 0.9 | 2.6 | 0.00 | 0.00 | 0.00 | 85 | 1013.2 |
| 20260505073556 | 53 | 233 | 0.9 | 2.6 | 0.00 | 0.00 | 0.00 | 85 | 1013.0 |
| 20260505072534 | 53 | 240 | 2.6 | 6.1 | 0.00 | 0.00 | 0.00 | 84 | 1012.8 |
| 20260505071532 | 53 | 233 | 0.9 | 2.6 | 0.00 | 0.00 | 0.00 | 84 | 1012.8 |
| 20260505070530 | 53 | 229 | 1.7 | 5.2 | 0.00 | 0.00 | 0.00 | 83 | 1012.8 |
| 20260505065549 | 54 | 236 | 0.9 | 2.6 | 0.00 | 0.00 | 0.00 | 83 | 1012.8 |
| 20260505064527 | 54 | 237 | 0.9 | 3.5 | 0.00 | 0.00 | 0.00 | 83 | 1012.7 |
| 20260505063525 | 54 | 238 | 0.9 | 2.6 | 0.00 | 0.00 | 0.00 | 82 | 1012.5 |
| 20260505062523 | 54 | 246 | 0.9 | 1.7 | 0.00 | 0.00 | 0.00 | 82 | 1012.5 |
| 20260505061542 | 55 | 228 | 1.7 | 5.2 | 0.00 | 0.00 | 0.00 | 82 | 1012.3 |
| 20260505060520 | 55 | 252 | 1.7 | 5.2 | 0.00 | 0.00 | 0.00 | 81 | 1012.2 |
| 20260505055518 | 55 | 223 | 1.7 | 5.2 | 0.00 | 0.00 | 0.00 | 82 | 1012.1 |
| 20260505054517 | 55 | 259 | 2.6 | 7.0 | 0.00 | 0.00 | 0.00 | 81 | 1012.0 |
| 20260505053614 | 55 | 242 | 2.6 | 7.8 | 0.00 | 0.00 | 0.00 | 81 | 1012.0 |
| 20260505052613 | 56 | 255 | 3.5 | 8.7 | 0.00 | 0.00 | 0.00 | 80 | 1012.0 |
| 20260505051611 | 56 | 228 | 2.6 | 6.1 | 0.00 | 0.00 | 0.00 | 79 | 1012.0 |
| 20260505050630 | 56 | 243 | 1.7 | 6.1 | 0.00 | 0.00 | 0.00 | 78 | 1011.7 |
| 20260505041601 | 59 | 234 | 2.6 | 6.1 | 0.00 | 0.00 | 0.00 | 71 | 1011.3 |
| 20260505040619 | 60 | 235 | 2.6 | 3.5 | 0.00 | 0.00 | 0.00 | 70 | 1011.0 |
| 20260505035557 | 61 | 253 | 2.6 | 5.2 | 0.00 | 0.00 | 0.00 | 69 | 1011.1 |
| 20260505034556 | 62 | 255 | 2.6 | 7.0 | 0.00 | 0.00 | 0.00 | 67 | 1010.9 |
| 20260505033554 | 63 | 231 | 1.7 | 7.0 | 0.00 | 0.00 | 0.00 | 66 | 1010.7 |
| 20260505032553 | 64 | 244 | 3.5 | 6.1 | 0.00 | 0.00 | 0.00 | 64 | 1010.6 |
| 20260505031551 | 65 | 244 | 2.6 | 5.2 | 0.00 | 0.00 | 0.00 | 63 | 1010.5 |
| 20260505030549 | 66 | 254 | 2.6 | 6.1 | 0.00 | 0.00 | 0.00 | 61 | 1010.3 |
| 20260505025548 | 67 | 236 | 2.6 | 7.0 | 0.00 | 0.00 | 0.00 | 59 | 1010.1 |
| 20260505024546 | 68 | 275 | 2.6 | 5.2 | 0.00 | 0.00 | 0.00 | 58 | 1010.0 |
| 20260505023604 | 70 | 255 | 2.6 | 7.8 | 0.00 | 0.00 | 0.00 | 57 | 1009.9 |
| 20260505022542 | 70 | 241 | 3.5 | 6.1 | 0.00 | 0.00 | 0.00 | 56 | 1010.0 |
| 20260505021541 | 71 | 251 | 1.7 | 3.5 | 0.00 | 0.00 | 0.00 | 55 | 1009.9 |
| 20260505020559 | 71 | 250 | 3.5 | 7.0 | 0.00 | 0.00 | 0.00 | 55 | 1009.9 |
| 20260505015537 | 72 | 237 | 3.5 | 8.7 | 0.00 | 0.00 | 0.00 | 54 | 1009.8 |
| 20260505014535 | 73 | 247 | 4.3 | 7.8 | 0.00 | 0.00 | 0.00 | 53 | 1009.8 |
| 20260505013534 | 74 | 254 | 3.5 | 9.6 | 0.00 | 0.00 | 0.00 | 52 | 1009.9 |
| 20260505012552 | 74 | 262 | 2.6 | 6.1 | 0.00 | 0.00 | 0.00 | 52 | 1009.7 |
| 20260505011551 | 75 | 252 | 3.5 | 5.2 | 0.00 | 0.00 | 0.00 | 52 | 1009.8 |
| 20260505010528 | 75 | 274 | 2.6 | 5.2 | 0.00 | 0.00 | 0.00 | 51 | 1009.8 |
| 20260505005547 | 76 | 260 | 0.9 | 2.6 | 0.00 | 0.00 | 0.00 | 51 | 1009.8 |
| 20260505004525 | 76 | 250 | 1.7 | 2.6 | 0.00 | 0.00 | 0.00 | 51 | 1009.7 |
| 20260505003524 | 76 | 242 | 1.7 | 7.0 | 0.00 | 0.00 | 0.00 | 51 | 1009.8 |
| 20260505002542 | 76 | 241 | 3.5 | 6.1 | 0.00 | 0.00 | 0.00 | 50 | 1009.7 |
| 20260505001520 | 77 | 231 | 3.5 | 7.0 | 0.00 | 0.00 | 0.00 | 49 | 1009.7 |
| 20260505000539 | 77 | 268 | 2.6 | 6.1 | 0.00 | 0.00 | 0.00 | 50 | 1009.6 |
| 20260504235517 | 76 | 241 | 1.7 | 5.2 | 0.00 | 0.00 | 0.00 | 50 | 1009.7 |
| 20260504234616 | 76 | 240 | 1.7 | 6.1 | 0.00 | 0.00 | 0.00 | 51 | 1009.6 |
| 20260504233633 | 76 | 273 | 1.7 | 5.2 | 0.00 | 0.00 | 0.00 | 51 | 1009.6 |
| 20260504232612 | 76 | 237 | 2.6 | 7.0 | 0.00 | 0.00 | 0.00 | 51 | 1009.8 |
| 20260504231610 | 76 | 285 | 0.9 | 3.5 | 0.00 | 0.00 | 0.00 | 51 | 1009.9 |
| 20260504230608 | 76 | 315 | 0.9 | 5.2 | 0.00 | 0.00 | 0.00 | 51 | 1010.0 |
| 20260504225607 | 76 | 295 | 2.6 | 6.1 | 0.00 | 0.00 | 0.00 | 49 | 1010.1 |
| 20260504224605 | 77 | 258 | 1.7 | 9.6 | 0.00 | 0.00 | 0.00 | 50 | 1010.3 |
| 20260504223624 | 77 | 246 | 3.5 | 5.2 | 0.00 | 0.00 | 0.00 | 51 | 1010.2 |
| 20260504222601 | 77 | 281 | 0.9 | 3.5 | 0.00 | 0.00 | 0.00 | 49 | 1010.3 |
| 20260504221559 | 77 | 276 | 1.7 | 5.2 | 0.00 | 0.00 | 0.00 | 49 | 1010.4 |
| 20260504220558 | 78 | 238 | 3.5 | 7.8 | 0.00 | 0.00 | 0.00 | 49 | 1010.3 |
| 20260504215556 | 78 | 246 | 2.6 | 5.2 | 0.00 | 0.00 | 0.00 | 49 | 1010.5 |
| 20260504214615 | 77 | 258 | 4.3 | 7.0 | 0.00 | 0.00 | 0.00 | 50 | 1010.6 |
| 20260504213553 | 78 | 219 | 3.5 | 7.0 | 0.00 | 0.00 | 0.00 | 49 | 1010.7 |
| 20260504212551 | 77 | 245 | 3.5 | 6.1 | 0.00 | 0.00 | 0.00 | 49 | 1010.8 |
| 20260504211550 | 78 | 253 | 3.5 | 7.8 | 0.00 | 0.00 | 0.00 | 48 | 1010.7 |
| 20260504210548 | 78 | 259 | 1.7 | 5.2 | 0.00 | 0.00 | 0.00 | 49 | 1010.7 |
| 20260504205546 | 78 | 264 | 1.7 | 7.0 | 0.00 | 0.00 | 0.00 | 50 | 1010.8 |
| 20260504204544 | 77 | 227 | 2.6 | 7.0 | 0.00 | 0.00 | 0.00 | 50 | 1010.8 |
| 20260504203543 | 77 | 279 | 2.6 | 6.1 | 0.00 | 0.00 | 0.00 | 50 | 1010.8 |
| 20260504202601 | 76 | 256 | 2.6 | 6.1 | 0.00 | 0.00 | 0.00 | 51 | 1010.9 |
| 20260504201540 | 76 | 248 | 1.7 | 6.1 | 0.00 | 0.00 | 0.00 | 49 | 1011.0 |
| 20260504200537 | 76 | 264 | 0.9 | 5.2 | 0.00 | 0.00 | 0.00 | 49 | 1011.0 |
| 20260504195536 | 76 | 295 | 1.7 | 5.2 | 0.00 | 0.00 | 0.00 | 50 | 1011.1 |
| 20260504194534 | 75 | 253 | 1.7 | 5.2 | 0.00 | 0.00 | 0.00 | 51 | 1011.0 |
| 20260504193533 | 76 | 267 | 1.7 | 3.5 | 0.00 | 0.00 | 0.00 | 50 | 1011.1 |
| 20260504192531 | 76 | 217 | 1.7 | 5.2 | 0.00 | 0.00 | 0.00 | 51 | 1011.2 |
| 20260504191557 | 76 | 214 | 1.7 | 3.5 | 0.00 | 0.00 | 0.00 | 51 | 1011.2 |
| 20260504190527 | 76 | 238 | 2.6 | 6.1 | 0.00 | 0.00 | 0.00 | 52 | 1011.4 |
| 20260504185526 | 75 | 224 | 2.6 | 5.2 | 0.00 | 0.00 | 0.00 | 53 | 1011.5 |
| 20260504184544 | 74 | 248 | 1.7 | 6.1 | 0.00 | 0.00 | 0.00 | 54 | 1011.5 |
| 20260504183522 | 74 | 259 | 1.7 | 5.2 | 0.00 | 0.00 | 0.00 | 55 | 1011.7 |
| 20260504182541 | 72 | 218 | 3.5 | 6.1 | 0.00 | 0.00 | 0.00 | 57 | 1011.8 |
| 20260504181539 | 71 | 239 | 1.7 | 3.5 | 0.00 | 0.00 | 0.00 | 56 | 1011.7 |
| 20260504180517 | 71 | 244 | 0.9 | 5.2 | 0.00 | 0.00 | 0.00 | 58 | 1011.7 |
| 20260504174614 | 70 | 273 | 0.9 | 2.6 | 0.00 | 0.00 | 0.00 | 56 | 1011.7 |
| 20260504173613 | 70 | 275 | 1.7 | 5.2 | 0.00 | 0.00 | 0.00 | 57 | 1011.6 |
| 20260504172631 | 69 | 243 | 3.5 | 7.8 | 0.00 | 0.00 | 0.00 | 59 | 1011.6 |
| 20260504171630 | 68 | 293 | 0.9 | 2.6 | 0.00 | 0.00 | 0.00 | 59 | 1011.5 |
| 20260504170608 | 68 | 249 | 1.7 | 2.6 | 0.00 | 0.00 | 0.00 | 58 | 1011.5 |